Dewpoint
56 56 56 55 56 56 56 56 56 57 57 57 58 58 59 58 58 59 59 59 59 59 59 59 59 59 59 59 59 59 58 55 51 49 48 49 52 63 67 68 64 66 67 48 41 45 38 47 52 52 53 56 56 56 58 55 55 61 59 58 56 57 55 55 55 55 61 61 63 64 66 65 61 64 63 64 60 60 61 61 61 61 62 62 62 61 60 60
56 55 55 56 55 55 56 56 56 57 57 57 58 58 58 58 58 58 58 58 58 58 58 58 59 59 58 59 59 59 57 53 50 48 47 52 63 65 65 65 64 67 62 40 37 45 48 52 53 51 52 55 57 54 55 53 54 54 59 58 54 56 56 56 58 56 61 59 62 64 67 65 62 65 63 62 60 60 62 61 60 59 61 62 62 60 59 59
55 55 55 55 55 55 56 56 57 57 57 57 57 58 58 58 58 58 58 58 58 58 58 59 59 59 59 58 59 59 56 52 50 49 49 62 63 65 67 67 67 63 47 34 37 42 51 53 52 50 53 55 55 52 53 52 52 53 52 56 56 56 57 56 55 62 58 62 63 64 63 63 64 64 62 62 59 60 59 59 59 60 60 61 61 60 59 59
55 55 55 55 55 56 56 56 56 57 57 57 57 57 58 58 57 58 58 57 58 58 58 58 59 59 59 59 59 57 55 51 47 47 51 72 67 65 66 68 64 63 48 38 35 39 50 50 49 50 53 55 54 52 51 51 50 52 51 50 51 56 56 57 63 63 61 65 61 63 63 62 63 65 64 65 59 60 60 59 58 60 60 61 60 59 59 59
55 55 55 55 55 55 56 56 57 57 57 57 57 57 57 58 57 57 57 57 57 58 58 59 59 59 59 60 58 55 49 46 47 46 55 68 70 68 67 70 67 53 43 34 34 35 38 41 47 51 53 53 53 51 50 50 50 49 51 52 51 57 54 61 55 59 58 60 65 64 62 62 62 66 62 62 60 61 60 59 59 61 62 62 61 59 59 59
55 55 55 55 55 55 56 56 56 57 57 57 57 57 58 57 57 57 57 57 58 58 58 59 59 59 59 59 57 54 50 27 43 40 57 67 69 68 68 69 67 53 39 32 31 34 38 43 44 48 51 50 50 47 47 49 49 47 49 49 47 56 58 57 51 57 57 58 61 59 62 63 64 63 61 61 63 63 62 59 60 60 61 61 61 60 60 59
54 54 54 54 54 55 55 56 56 56 57 57 57 57 57 57 57 57 57 57 57 58 59 59 60 60 59 59 56 51 46 45 45 42 72 71 70 70 71 66 64 56 45 31 30 31 37 42 44 45 49 49 48 48 48 46 47 46 46 48 49 53 52 53 53 58 58 57 61 60 63 64 62 61 60 61 59 62 64 60 58 59 60 61 61 60 60 59
54 54 54 54 54 54 55 55 56 56 56 56 57 57 56 57 57 57 57 58 57 59 60 60 61 60 60 51 46 45 47 45 43 48 72 72 71 69 67 59 58 53 45 35 30 31 37 41 44 45 47 47 47 46 46 45 44 44 44 45 48 53 51 50 53 53 55 58 61 60 61 63 61 64 61 57 59 61 61 61 58 59 59 60 60 60 60 60
54 54 54 54 54 54 55 55 56 56 56 56 56 56 56 56 56 57 57 57 58 59 61 61 61 59 59 53 39 39 34 32 40 51 64 68 65 68 62 57 57 49 42 38 33 34 39 42 44 45 44 45 46 44 43 41 39 41 40 42 43 51 49 48 51 51 52 56 60 60 57 61 64 62 58 57 60 60 60 61 56 58 60 60 61 61 60 60
54 54 54 54 54 54 55 55 55 56 56 56 56 56 56 56 56 57 57 57 58 60 61 61 60 59 57 49 43 40 32 30 32 48 60 59 63 66 62 55 55 45 37 36 35 36 39 43 45 45 44 42 42 41 37 35 35 36 37 40 40 41 50 49 51 51 52 56 59 58 57 59 62 60 55 57 59 59 59 57 56 56 57 59 59 60 60 60
54 54 54 53 54 55 55 55 55 55 56 56 55 55 55 56 55 56 56 57 58 60 61 61 60 57 45 42 39 37 33 28 27 27 39 33 49 59 59 57 51 42 34 33 35 38 41 41 43 42 42 39 39 38 37 36 34 33 32 30 28 30 38 39 42 45 47 50 58 58 57 57 57 55 56 55 58 58 56 56 56 56 56 56 56 57 60 60
53 53 54 54 54 54 55 55 55 55 55 55 55 55 55 55 55 55 56 57 59 61 61 59 60 56 47 43 41 38 36 21 23 30 24 29 34 36 45 51 43 37 32 31 34 38 40 40 42 41 37 40 38 37 31 31 30 29 29 27 27 27 31 39 39 39 47 47 52 58 55 53 52 52 55 56 58 58 57 56 55 56 56 56 56 57 57 57
53 54 54 54 54 54 55 55 55 55 55 55 55 54 54 55 55 55 56 57 58 60 61 60 58 54 49 45 45 46 44 20 25 24 27 25 29 33 34 39 35 33 32 32 33 35 37 41 43 42 39 36 36 33 33 33 25 25 25 25 25 25 27 33 38 39 39 43 49 50 50 50 52 52 54 56 57 57 56 56 56 55 56 56 57 56 57 57
53 53 53 54 54 54 55 55 55 54 54 54 54 54 54 54 54 55 56 57 58 60 61 60 57 50 48 46 47 33 32 34 31 30 23 34 21 32 33 36 35 32 33 33 34 39 47 46 46 43 40 37 36 37 34 31 28 19 21 26 25 26 28 33 36 36 37 41 46 49 47 47 48 54 55 56 57 56 56 56 56 56 56 56 56 56 57 56
53 53 53 54 54 54 54 54 54 54 54 54 53 53 53 53 54 55 56 57 59 61 60 60 56 49 49 47 49 39 66 36 34 29 21 16 17 24 34 35 39 34 33 34 37 44 49 49 44 41 39 40 38 36 34 31 30 27 21 21 23 25 28 31 34 34 34 38 43 49 47 54 50 52 55 57 56 56 56 56 57 56 57 55 56 56 56 56
54 53 53 54 54 54 54 54 53 54 54 53 52 52 54 54 56 56 57 57 57 60 56 52 54 49 47 44 36 44 35 29 24 21 16 23 16 17 31 33 35 40 39 39 43 46 48 49 43 40 38 38 36 34 31 29 28 28 24 25 21 23 25 27 28 30 34 37 40 48 46 49 55 52 55 55 56 56 56 56 56 57 56 55 57 56 56 57
53 53 53 53 54 54 54 53 53 53 53 52 52 53 54 55 57 57 57 58 57 59 51 47 47 51 47 36 40 25 25 19 18 19 14 29 22 16 18 32 32 36 42 44 45 46 48 47 47 41 38 36 35 33 31 29 28 27 23 21 21 20 23 25 27 28 32 35 37 43 43 49 52 50 55 56 56 56 56 58 61 61 62 56 57 57 57 57
53 53 53 53 54 54 54 53 53 53 52 51 52 52 51 54 57 56 57 59 53 48 49 51 50 48 45 46 38 23 22 19 19 15 15 15 22 19 19 27 34 35 39 42 44 45 47 45 45 40 37 36 35 33 29 27 27 27 24 20 18 19 19 19 24 26 26 34 33 41 41 47 50 52 54 55 56 56 56 58 61 61 62 59 57 57 57 56
53 53 53 53 53 54 53 53 53 52 52 52 52 52 53 53 52 48 43 49 49 49 48 48 49 44 28 13 23 16 21 14 14 18 16 15 22 20 19 27 37 37 37 40 43 45 45 43 42 40 35 34 33 33 31 29 27 25 24 18 18 16 16 16 18 21 24 31 29 40 40 44 47 51 52 54 54 55 56 59 60 61 61 61 57 57 57 57
53 53 53 53 53 53 53 53 52 51 51 50 48 44 45 41 43 43 40 41 40 39 38 35 46 34 24 12 9 12 14 14 10 13 18 19 26 19 17 23 34 37 36 40 41 43 42 40 38 36 35 34 33 33 32 32 30 27 24 20 16 12 13 16 18 21 22 27 29 37 41 40 48 49 51 53 53 55 57 58 60 60 60 60 58 57 57 57
53 53 53 53 53 53 53 52 52 51 51 49 48 42 27 25 23 22 26 25 24 22 21 21 20 13 6 8 8 9 7 8 10 17 18 21 20 19 14 22 28 36 38 41 36 38 37 36 36 36 36 35 34 33 32 30 29 28 26 23 18 15 12 10 13 18 20 22 29 30 38 40 50 50 51 52 52 54 57 59 59 60 60 59 58 57 57 58
52 53 52 53 52 52 52 52 51 51 51 50 48 38 27 27 28 27 27 24 25 25 22 20 18 9 8 8 14 13 11 7 10 18 23 31 16 17 17 19 27 33 38 38 38 32 33 31 34 36 36 36 34 32 30 28 26 25 23 21 19 17 13 10 8 13 18 23 30 31 34 42 47 49 50 50 52 54 56 59 60 60 59 59 58 57 57 57
52 52 53 53 53 52 51 51 50 50 49 47 44 41 26 28 28 31 28 26 25 25 22 18 14 12 11 12 11 14 7 5 7 17 19 24 18 15 18 21 25 31 34 36 34 31 28 30 31 32 34 34 33 31 28 24 23 21 19 19 18 17 13 9 13 13 16 20 26 33 33 40 45 49 50 51 51 53 56 57 58 59 59 58 58 58 58 57
52 52 53 53 52 52 51 50 50 50 49 41 37 29 29 28 31 32 27 24 23 23 22 21 18 14 12 11 6 9 6 7 8 20 25 21 16 20 20 25 30 29 30 33 33 30 27 27 31 30 29 29 29 29 26 22 19 19 19 18 16 15 14 10 10 12 13 15 19 31 33 35 45 43 49 50 51 54 56 57 58 59 59 59 59 59 59 58
52 52 53 53 52 51 50 49 48 36 38 36 35 29 29 35 36 32 26 27 25 22 23 20 23 14 12 18 13 13 8 8 8 7 20 19 17 22 25 26 30 29 28 27 28 30 28 27 25 29 28 26 25 25 24 22 18 16 18 18 16 15 13 12 9 8 11 12 15 24 31 34 43 43 45 47 48 53 55 55 57 58 58 59 59 58 59 59
53 53 53 52 52 51 50 47 42 42 40 35 30 30 30 32 37 37 31 27 17 21 22 13 10 10 15 11 11 7 9 8 11 15 21 20 24 18 18 20 27 25 29 29 27 26 26 27 25 23 26 26 24 23 24 23 19 16 16 17 16 15 13 11 9 9 15 21 19 16 29 34 43 43 45 47 48 49 53 54 56 57 57 59 59 58 59 58
53 53 53 52 52 50 41 34 43 42 37 32 32 31 30 30 49 35 35 28 21 17 15 7 6 13 14 7 11 13 6 9 14 22 21 20 14 19 14 15 20 24 24 24 29 26 27 25 24 23 22 23 24 23 23 22 20 17 17 17 16 15 11 9 8 8 12 14 11 13 21 27 33 42 45 47 48 49 51 52 55 56 56 59 59 59 59 59
53 53 52 51 50 50 46 44 43 40 38 37 35 34 32 40 43 35 36 28 19 19 6 8 9 11 9 5 7 5 6 15 9 13 18 19 21 18 16 12 13 13 13 19 22 25 25 24 24 23 22 21 22 24 24 22 20 18 17 17 15 12 10 8 7 8 12 15 13 14 14 23 31 36 46 46 46 48 51 51 55 56 57 58 59 59 59 59
53 52 52 51 50 49 50 47 44 41 42 40 36 35 34 39 35 32 30 27 19 22 15 9 13 9 7 12 5 4 3 9 1 15 18 20 20 21 14 14 11 10 12 12 11 14 16 22 25 23 22 20 22 23 24 22 19 19 19 19 17 16 14 9 7 9 12 16 13 17 14 18 31 35 40 46 46 47 50 51 53 55 56 57 58 59 58 58
52 52 51 51 49 48 50 48 43 43 43 42 38 37 34 33 33 30 27 23 16 9 12 8 9 7 10 4 4 4 4 1 5 14 15 14 16 22 15 18 12 13 12 12 12 14 15 24 28 20 19 21 22 22 22 21 20 21 19 18 17 16 17 19 24 25 22 16 13 13 9 14 18 31 29 35 44 46 47 53 54 55 55 56 57 58 57 57
51 51 50 50 48 45 44 38 37 40 44 43 38 34 34 36 33 29 25 11 12 9 12 8 6 8 4 3 2 5 6 5 5 11 5 8 7 15 16 14 17 10 9 9 7 8 11 12 14 16 21 21 22 21 21 21 20 20 20 17 23 18 19 24 27 27 21 17 18 12 7 6 14 29 29 29 35 46 48 53 53 54 55 56 57 56 56 57
50 49 50 49 49 49 43 34 36 38 42 40 36 33 33 32 30 27 24 15 13 14 10 8 9 4 4 2 1 5 4 3 6 9 8 8 9 11 13 20 16 15 11 8 6 6 3 4 10 15 25 21 21 20 20 20 19 18 18 22 17 21 22 19 22 18 21 18 18 7 6 6 11 26 28 29 26 38 45 52 53 54 55 56 56 56 56 56
49 49 49 50 51 49 48 42 41 42 42 38 35 36 30 31 30 28 24 21 11 10 9 11 5 4 4 -1 -1 5 6 1 4 3 5 8 8 9 16 15 16 20 19 14 12 12 10 3 2 10 17 25 22 20 20 16 17 16 16 22 23 20 19 16 21 19 21 21 14 12 10 7 22 17 25 23 24 26 29 49 52 53 55 56 56 56 56 55
49 49 49 51 49 49 45 47 44 43 39 38 37 31 31 27 27 24 11 10 7 9 10 7 6 5 4 -3 5 6 5 6 9 5 7 5 1 9 19 19 18 17 16 15 13 15 15 15 2 9 16 23 22 21 20 17 17 17 20 18 23 24 20 21 20 19 15 19 18 12 9 16 9 19 14 15 16 22 21 33 51 52 55 56 56 55 55 55
49 49 50 51 51 50 47 46 45 44 39 33 30 31 28 32 27 15 13 13 9 9 6 7 6 6 6 4 1 3 6 5 10 9 5 1 -2 15 20 19 19 18 17 16 19 21 12 13 16 15 15 16 13 20 20 20 16 18 21 26 19 18 22 14 23 20 19 17 15 15 12 15 11 23 14 10 10 12 15 27 52 52 55 55 55 54 54 54
49 50 49 48 48 47 45 45 45 43 34 33 32 33 29 21 14 14 15 14 12 10 8 5 1 1 2 1 5 9 12 14 3 5 5 1 5 19 19 19 18 18 17 17 19 14 14 13 14 13 14 15 15 17 19 23 18 21 16 16 17 16 12 22 24 18 16 22 20 28 19 14 15 10 14 11 9 10 11 17 43 53 54 55 55 54 54 53
49 49 47 47 44 34 44 46 39 43 39 31 34 31 29 22 15 13 20 13 12 10 8 3 10 7 6 5 7 8 10 7 4 4 9 2 12 18 19 18 19 17 16 17 19 14 15 12 13 12 11 12 15 15 17 20 19 19 17 13 14 14 15 26 16 23 21 18 21 17 16 15 8 16 10 10 9 6 7 15 38 53 53 54 54 54 54 54
49 48 50 49 39 45 33 45 43 42 34 34 32 33 30 20 16 15 15 14 14 13 8 9 12 11 10 8 8 8 7 4 11 10 6 6 15 18 17 16 16 15 15 15 19 15 13 11 11 12 10 10 12 14 19 20 20 18 17 20 21 19 12 19 28 18 18 19 19 19 21 22 10 21 8 7 9 9 8 15 45 52 53 54 53 53 54 54
50 49 47 38 42 35 35 44 44 45 35 32 31 33 20 16 17 17 16 14 13 11 8 12 12 12 12 9 9 9 8 5 9 8 10 9 16 17 16 17 15 15 14 13 13 15 16 13 12 13 13 16 12 15 22 18 19 20 20 18 20 21 26 24 22 25 27 23 27 18 18 22 18 16 7 6 9 11 10 14 31 52 53 53 52 52 53 54
49 47 36 38 35 40 42 45 34 40 36 31 33 25 21 18 18 16 14 14 11 12 12 12 12 12 12 11 12 11 10 8 8 10 7 12 16 18 16 18 16 14 14 13 12 20 22 22 13 11 19 18 13 18 18 17 17 17 18 18 20 22 22 21 28 15 20 25 23 24 22 27 29 25 9 9 11 12 13 21 23 51 53 52 52 52 53 56
49 45 41 41 33 48 35 33 34 33 32 31 29 21 21 19 16 15 13 12 13 14 11 11 11 13 11 13 13 13 11 10 9 9 7 12 16 19 18 17 17 15 15 12 16 27 28 24 23 20 18 17 15 14 17 18 17 16 17 17 18 19 20 19 20 21 16 18 20 22 21 29 25 25 35 22 15 13 22 24 21 51 52 52 52 52 55 56
47 40 30 37 42 39 37 34 31 35 32 25 25 21 21 28 19 14 14 13 12 10 13 12 13 11 10 12 13 13 12 9 9 11 10 14 16 16 17 17 16 16 15 14 16 26 29 32 25 20 19 19 19 19 20 19 18 16 16 16 21 20 20 22 20 26 19 16 17 21 22 21 31 31 29 28 16 14 18 26 31 46 52 52 52 52 55 56
43 41 36 37 40 32 35 33 42 31 24 21 22 22 22 20 18 18 17 14 15 18 16 14 13 14 13 14 14 12 13 12 9 12 9 15 15 16 17 16 16 15 15 21 18 21 32 28 24 23 25 23 21 20 16 14 15 14 18 20 21 20 20 19 21 22 23 22 17 20 24 20 23 30 36 30 28 16 18 19 28 28 49 51 51 52 52 55
46 45 43 35 34 37 35 26 28 31 34 22 23 20 21 20 19 18 18 17 17 17 16 17 17 16 15 15 14 12 15 18 11 11 16 15 17 17 17 17 17 19 25 25 25 20 21 29 25 23 23 21 18 16 10 23 27 23 22 24 24 24 22 22 23 24 24 30 23 22 18 19 33 45 44 41 38 35 29 19 26 32 34 53 50 52 51 53
46 47 45 35 43 31 30 24 28 26 25 23 22 21 19 18 21 19 19 19 20 18 16 16 17 17 14 15 13 15 16 14 16 14 20 18 23 18 17 17 17 16 21 25 32 22 26 25 26 23 23 22 20 18 25 30 25 21 21 20 20 23 23 22 22 24 25 32 29 30 26 24 37 44 43 43 43 43 44 45 45 43 43 45 54 57 53 53
43 36 31 34 35 30 28 28 25 26 28 27 27 22 18 21 20 20 20 19 17 17 18 18 17 16 17 16 17 18 18 17 16 21 23 22 21 22 21 21 19 16 23 29 31 22 28 22 27 26 23 21 23 25 24 22 17 16 16 15 14 15 19 22 31 29 24 28 28 31 37 34 41 43 42 42 43 43 45 46 45 45 44 44 51 57 55 52
45 37 31 34 35 29 27 27 27 28 28 26 35 26 23 19 20 24 24 23 18 20 15 20 19 18 21 18 20 19 19 19 23 23 21 23 26 23 23 22 20 32 33 27 25 25 29 23 18 25 21 16 13 14 13 15 11 12 12 12 12 14 17 19 24 23 29 27 26 37 36 31 42 43 42 44 47 47 46 46 46 46 46 47 55 57 62 59
37 37 33 37 32 28 30 28 26 27 27 29 37 27 24 20 21 21 20 17 20 21 22 27 23 22 20 20 21 22 24 24 25 25 26 26 26 25 25 24 20 29 27 19 22 21 25 19 16 15 14 14 14 13 12 11 9 8 8 9 9 12 15 15 22 21 27 25 24 30 34 32 34 51 48 47 48 48 47 46 49 51 52 54 54 54 54 55
41 41 37 39 38 31 29 26 26 26 29 32 35 27 24 23 24 25 20 20 21 24 24 27 24 23 22 22 27 28 33 24 24 30 31 26 25 25 23 22 21 21 21 25 23 29 25 20 18 15 16 16 16 15 13 11 11 10 9 7 7 10 14 16 16 18 19 25 26 24 30 28 33 51 53 52 50 48 48 50 53 52 52 53 52 53 53 54
38 38 40 41 40 32 32 29 27 29 29 33 36 28 26 25 25 26 28 25 23 24 25 25 24 25 24 24 31 28 25 25 26 25 28 27 26 28 26 26 24 23 20 23 20 30 23 25 22 18 18 17 16 17 16 16 15 13 11 10 10 10 12 14 15 16 24 22 25 26 32 38 50 51 52 54 51 50 52 52 52 52 51 51 51 51 53 53
44 44 46 42 40 34 34 34 33 33 31 31 31 31 28 26 26 31 27 29 28 26 27 25 25 26 26 25 26 25 27 29 30 29 29 28 27 29 26 27 22 20 22 21 28 33 26 26 23 21 20 18 17 17 16 14 13 11 11 11 10 9 11 14 17 18 20 23 25 24 29 40 52 52 51 52 56 52 50 49 50 50 50 51 51 51 52 53
47 47 48 45 42 42 36 30 31 31 29 30 32 29 30 27 28 28 28 30 30 30 28 27 27 27 28 29 30 29 29 29 29 29 29 29 28 27 26 26 25 23 23 22 27 30 29 28 25 24 20 18 18 17 16 16 16 16 16 12 10 10 11 11 12 17 19 18 20 26 33 49 52 53 48 50 53 55 47 46 47 49 49 49 50 51 51 52